Galesburg, IL

11:19 PM CST on December 14, 2019 (GMT -0600)
Galesburg Municipal

Weather History for KGBG - May, 2019

Change the Weather History Date:

Thursday, May 9, 2019

  Actual Average Record
Temperature  
Mean Temperature 54 °F -  
Max Temperature 63 °F 69 °F 91 °F (1963)
Min Temperature 45 °F 46 °F 30 °F (1966)
Degree Days  
Heating Degree Days 11    
Growing Degree Days 4 (Base 50)    
Moisture  
Dew Point 47 °F    
Average Humidity 85    
Maximum Humidity 100    
Minimum Humidity 74    
Precipitation  
Precipitation 0.01 in - - ()
Sea Level Pressure  
Sea Level Pressure 29.83 in    
Wind  
Wind Speed 11 mph (West)    
Max Wind Speed 21 mph    
Max Gust Speed 26 mph    
Visibility 10 miles    
Events Rain    
Averages and records for this station are not official NWS values.
T = Trace of Precipitation, MM = Missing Value Source: NWS Daily Summary

Daily Weather History Graph

Daily Weather History Graph

Search for Another Location

Airport or City:

Astronomy

May. 09, 2019 Rise Set
Actual Time 5:50 AM CDT 8:06 PM CDT
Civil Twilight 5:19 AM CDT 8:37 PM CDT
Nautical Twilight 4:42 AM CDT 9:15 PM CDT
Astronomical Twilight 4:00 AM CDT 9:56 PM CDT
Moon 9:45 AM CDT (5/9) 12:06 AM CDT (5/9)
Length of Visible Light 15h 17m
Length of Day
14h 15m
Waxing Crescent, 25% of the Moon is Illuminated
May 9
Waxing Crescent
May 11
First Quarter
May 18
Full
May 26
Last Quarter
Jun 3
New

Hourly Weather History & Observations

Time (CDT) Temp. Windchill Dew Point Humidity Pressure Visibility Wind Dir Wind Speed Gust Speed Precip Events Conditions
12:15 AM 63.5 °F - 63.0 °F 98% 29.69 in 10.0 mi ESE 11.5 mph 16.1 mph 0.01 in Rain Light Rain
12:35 AM 63.1 °F - 62.6 °F 98% 29.69 in 10.0 mi WSW 9.2 mph - 0.01 in   Light Drizzle
12:55 AM 63.0 °F - 62.6 °F 99% 29.69 in 10.0 mi WSW 6.9 mph - 0.01 in Rain Light Rain
1:15 AM 63.0 °F - 62.6 °F 99% 29.69 in 10.0 mi WSW 6.9 mph - N/A   Drizzle
1:35 AM 62.6 °F - 62.2 °F 99% 29.68 in 10.0 mi SW 6.9 mph - N/A Rain Light Rain
1:55 AM 62.2 °F - 61.9 °F 99% 29.67 in 10.0 mi WSW 4.6 mph - N/A   Mostly Cloudy
2:15 AM 62.1 °F - 61.9 °F 99% 29.66 in 10.0 mi WSW 3.5 mph - N/A   Mostly Cloudy
2:35 AM 61.5 °F - 61.2 °F 99% 29.64 in 10.0 mi WSW 3.5 mph - N/A   Mostly Cloudy
2:55 AM 61.5 °F - 61.5 °F 100% 29.65 in 7.0 mi East 4.6 mph - N/A   Scattered Clouds
3:15 AM 61.3 °F - 61.3 °F 100% 29.65 in 7.0 mi WSW 4.6 mph - N/A   Mostly Cloudy
3:35 AM 61.9 °F - 61.9 °F 100% 29.65 in 10.0 mi WSW 5.8 mph - N/A   Overcast
3:55 AM 62.1 °F - 62.1 °F 100% 29.65 in 10.0 mi SW 6.9 mph - N/A   Overcast
4:15 AM 61.7 °F - 61.7 °F 100% 29.64 in 10.0 mi WSW 8.1 mph - N/A   Overcast
4:35 AM 61.9 °F - 61.9 °F 100% 29.66 in 7.0 mi SW 5.8 mph - N/A   Overcast
4:55 AM 61.9 °F - 61.9 °F 100% 29.66 in 10.0 mi SW 8.1 mph - N/A   Overcast
5:15 AM 61.7 °F - 61.7 °F 100% 29.67 in 10.0 mi SW 6.9 mph - N/A   Overcast
5:35 AM 57.0 °F - 55.0 °F 93% 29.68 in 10.0 mi West 16.1 mph - N/A   Overcast
5:55 AM 55.4 °F - 54.5 °F 97% 29.69 in 10.0 mi West 15.0 mph 18.4 mph N/A   Overcast
6:15 AM 54.0 °F - 52.9 °F 96% 29.70 in 10.0 mi WNW 15.0 mph 21.9 mph N/A   Overcast
6:35 AM 53.6 °F - 52.2 °F 95% 29.71 in 10.0 mi West 15.0 mph 19.6 mph N/A   Overcast
6:55 AM 53.1 °F - 51.8 °F 95% 29.73 in 10.0 mi West 15.0 mph 21.9 mph N/A   Overcast
7:15 AM 52.2 °F - 50.5 °F 94% 29.75 in 5.0 mi West 18.4 mph 26.5 mph N/A   Overcast
7:35 AM 51.4 °F - 49.3 °F 92% 29.76 in 10.0 mi West 16.1 mph 23.0 mph N/A   Overcast
7:55 AM 51.6 °F - 48.7 °F 90% 29.76 in 10.0 mi West 18.4 mph 24.2 mph N/A   Overcast
8:15 AM 50.4 °F - 47.3 °F 89% 29.77 in 10.0 mi West 18.4 mph 23.0 mph N/A   Overcast
8:35 AM 50.4 °F - 46.6 °F 87% 29.77 in 10.0 mi West 17.3 mph 23.0 mph N/A   Overcast
8:55 AM 50.5 °F - 46.6 °F 86% 29.78 in 10.0 mi West 18.4 mph 25.3 mph N/A   Overcast
9:15 AM 48.7 °F - 45.1 °F 87% 29.79 in 10.0 mi West 20.7 mph 24.2 mph N/A   Overcast
9:35 AM 47.3 °F - 43.3 °F 86% 29.80 in 10.0 mi West 18.4 mph 24.2 mph N/A   Overcast
9:55 AM 48.0 °F - 43.9 °F 86% 29.81 in 10.0 mi West 17.3 mph 21.9 mph N/A   Overcast
10:15 AM 48.2 °F - 43.3 °F 83% 29.81 in 10.0 mi West 18.4 mph 23.0 mph N/A   Overcast
10:35 AM 48.4 °F - 43.2 °F 82% 29.81 in 10.0 mi WNW 17.3 mph 20.7 mph N/A   Overcast
10:55 AM 48.6 °F - 43.0 °F 81% 29.82 in 10.0 mi West 19.6 mph 25.3 mph N/A   Overcast
11:15 AM 48.9 °F - 43.0 °F 80% 29.85 in 10.0 mi West 16.1 mph - N/A   Overcast
11:35 AM 49.1 °F - 42.6 °F 78% 29.85 in 10.0 mi WNW 13.8 mph 21.9 mph N/A   Overcast
11:55 AM 48.6 °F - 42.1 °F 78% 29.86 in 10.0 mi West 15.0 mph 20.7 mph N/A   Overcast
12:15 PM 49.6 °F - 42.8 °F 77% 29.87 in 10.0 mi West 15.0 mph - N/A   Overcast
12:35 PM 49.1 °F - 42.3 °F 77% 29.87 in 10.0 mi West 15.0 mph 19.6 mph N/A   Overcast
12:55 PM 48.9 °F - 42.4 °F 78% 29.87 in 10.0 mi West 15.0 mph - N/A   Overcast
1:15 PM 49.6 °F - 42.4 °F 76% 29.89 in 10.0 mi West 16.1 mph - N/A   Overcast
1:35 PM 49.3 °F - 42.3 °F 77% 29.89 in 10.0 mi West 13.8 mph - N/A   Overcast
1:55 PM 48.9 °F - 42.1 °F 77% 29.90 in 10.0 mi WSW 10.4 mph 19.6 mph N/A   Overcast
2:15 PM 48.9 °F - 42.1 °F 77% 29.90 in 10.0 mi West 13.8 mph - N/A   Overcast
2:35 PM 48.9 °F - 41.9 °F 77% 29.91 in 10.0 mi West 13.8 mph - N/A   Overcast
3:55 PM 49.1 °F - 41.2 °F 74% 29.90 in 10.0 mi West 16.1 mph 21.9 mph N/A   Overcast
4:15 PM 48.4 °F - 40.5 °F 74% 29.91 in 10.0 mi West 13.8 mph - N/A   Overcast
4:35 PM 48.2 °F - 40.6 °F 75% 29.91 in 10.0 mi West 17.3 mph - N/A   Overcast
4:55 PM 48.2 °F - 40.8 °F 76% 29.92 in 10.0 mi West 16.1 mph - N/A   Overcast
5:15 PM 47.7 °F - 40.1 °F 75% 29.93 in 10.0 mi West 11.5 mph - N/A   Overcast
5:35 PM 47.3 °F - 40.1 °F 76% 29.94 in 10.0 mi West 11.5 mph - N/A   Overcast
5:55 PM 47.3 °F - 40.3 °F 77% 29.95 in 10.0 mi West 10.4 mph - N/A   Overcast
6:15 PM 47.1 °F - 40.3 °F 77% 29.95 in 10.0 mi West 13.8 mph - N/A   Overcast
6:35 PM 46.9 °F - 39.9 °F 77% 29.95 in 10.0 mi West 11.5 mph - N/A   Overcast
6:55 PM 46.9 °F - 39.4 °F 75% 29.95 in 10.0 mi WNW 12.7 mph 17.3 mph N/A   Overcast
7:15 PM 46.9 °F - 40.1 °F 77% 29.95 in 10.0 mi WNW 8.1 mph - N/A   Overcast
7:35 PM 46.8 °F - 39.9 °F 77% 29.96 in 10.0 mi WNW 9.2 mph 16.1 mph N/A   Overcast
7:55 PM 46.6 °F - 40.1 °F 78% 29.97 in 10.0 mi WNW 10.4 mph - N/A   Overcast
8:15 PM 46.6 °F - 40.1 °F 78% 29.97 in 10.0 mi WNW 9.2 mph - N/A   Overcast
8:35 PM 46.4 °F 41.5 °F 39.2 °F 76% 29.97 in 10.0 mi WNW 10.4 mph - N/A   Overcast
8:55 PM 46.4 °F 40.7 °F 38.5 °F 74% 29.99 in 10.0 mi WNW 12.7 mph 17.3 mph N/A   Overcast
9:15 PM 46.2 °F 42.2 °F 39.2 °F 76% 30.00 in 10.0 mi WNW 8.1 mph - N/A   Overcast
9:35 PM 46.2 °F 42.2 °F 39.0 °F 76% 30.00 in 10.0 mi WNW 8.1 mph - N/A   Overcast
9:55 PM 46.4 °F 41.9 °F 38.7 °F 74% 30.01 in 10.0 mi WNW 9.2 mph - N/A   Overcast
10:15 PM 46.4 °F 42.4 °F 39.2 °F 76% 30.02 in 10.0 mi WNW 8.1 mph - N/A   Overcast
10:35 PM 46.0 °F 42.5 °F 39.4 °F 78% 30.02 in 10.0 mi WNW 6.9 mph - N/A   Overcast
10:55 PM 46.0 °F 42.5 °F 39.4 °F 78% 30.02 in 10.0 mi WNW 6.9 mph - N/A   Overcast
11:15 PM 46.0 °F 43.1 °F 39.6 °F 78% 30.03 in 10.0 mi WNW 5.8 mph - N/A   Overcast
11:35 PM 45.9 °F 42.3 °F 40.1 °F 80% 30.03 in 10.0 mi WNW 6.9 mph - N/A   Overcast
11:55 PM 46.0 °F 41.4 °F 39.9 °F 79% 30.04 in 10.0 mi WNW 9.2 mph - N/A   Overcast